Temperature
20 18 18 18 19 19 19 19 19 19 19 19 18 18 18 18 18 18 18 19 19 19 20 19 19 18 18 18 18 17 17 17 16 16 16 16 16 15 15 15 15 15 15 15
18 18 19 19 19 19 19 19 19 19 19 19 18 18 17 17 17 18 18 19 19 19 19 19 19 19 18 18 18 17 17 17 16 16 16 16 15 15 15 15 15 15 15 15
19 19 20 20 20 19 19 19 19 19 19 18 18 18 18 17 18 18 19 19 19 20 20 19 19 19 18 18 18 17 17 17 16 16 16 16 15 15 15 15 15 15 15 14
19 19 20 20 20 20 19 20 19 19 18 17 18 17 17 17 17 17 18 18 19 19 19 19 19 19 18 18 18 17 17 17 16 16 16 16 16 15 15 15 15 15 14 14
19 20 20 20 20 20 19 20 19 19 18 17 17 17 16 16 17 17 17 18 19 19 20 20 19 19 19 18 18 18 17 17 16 16 16 16 15 15 15 15 15 14 14 14
19 20 20 20 20 20 20 18 17 16 16 16 17 16 16 16 17 17 17 18 19 19 20 20 20 19 19 18 18 18 17 17 16 16 16 16 15 15 15 15 14 14 14 14
19 19 20 20 20 20 19 17 16 16 15 16 17 16 16 17 17 17 17 19 19 19 19 19 19 19 19 18 18 18 17 17 17 16 16 16 15 15 15 15 14 14 14 14
18 18 19 20 20 19 18 17 16 17 16 16 16 16 17 18 18 18 19 19 19 19 19 19 19 19 19 18 18 18 17 17 17 16 16 16 15 15 15 14 14 14 14 14
17 17 19 20 20 19 18 17 16 15 16 16 16 16 17 18 18 18 18 18 19 19 19 19 19 19 19 19 18 18 17 17 17 16 16 16 15 15 15 14 14 14 14 14
17 18 19 19 19 19 18 16 15 15 16 16 16 16 16 18 18 17 17 18 19 19 19 19 19 19 19 19 18 18 17 17 17 16 16 15 15 15 15 14 14 14 14 14
17 17 18 18 19 18 17 17 15 14 15 15 15 16 17 17 17 16 16 18 18 19 19 19 19 19 19 18 18 18 17 17 16 16 16 15 15 15 14 14 14 14 14 14
16 15 16 17 18 18 18 17 15 16 15 14 14 15 17 16 16 16 17 17 18 18 19 19 19 18 18 18 18 17 17 17 16 16 16 15 15 15 14 14 14 14 14 14
16 15 16 16 17 17 17 17 16 14 13 13 14 16 16 15 16 16 17 17 17 18 18 18 18 18 18 18 17 17 17 17 16 16 16 15 15 15 14 14 14 14 14 13
16 14 15 16 16 16 17 17 16 15 14 13 14 15 16 15 15 16 16 17 17 17 18 18 18 17 17 17 17 17 17 17 16 16 16 15 15 15 14 14 14 14 13 13
15 15 15 16 16 16 17 17 16 15 14 14 15 15 15 15 15 16 16 16 16 17 17 17 17 17 17 17 17 17 17 16 16 16 15 15 15 14 14 14 14 13 13 13
13 15 15 16 16 16 16 16 16 15 15 14 14 15 15 15 15 15 16 15 16 16 17 17 17 17 16 16 16 16 16 16 16 15 15 15 15 14 14 14 14 13 13 13
12 14 14 14 15 15 15 15 16 15 15 15 15 15 14 14 14 15 16 16 16 16 17 17 17 17 16 16 16 16 16 16 16 15 15 15 14 14 14 14 14 13 13 13
12 12 12 13 14 15 15 16 16 15 15 14 14 14 14 14 15 16 16 16 16 16 16 16 16 16 16 16 16 16 15 15 15 15 15 14 14 14 14 14 14 13 13 13
11 12 12 12 13 14 15 15 15 15 15 14 14 14 14 15 15 15 16 16 16 16 16 16 16 16 16 16 16 16 15 15 15 15 14 14 14 14 14 14 13 13 13 13
11 11 12 11 13 14 14 15 15 15 14 14 13 13 13 14 12 14 16 16 16 16 16 16 16 16 16 16 15 15 15 15 14 14 14 14 14 13 13 13 13 13 13 13
11 11 11 11 12 13 13 14 14 14 14 14 14 14 13 13 13 15 15 15 15 16 16 15 15 15 15 15 15 15 15 14 14 14 14 14 13 13 13 13 13 13 12 12
11 11 11 10 12 13 13 13 13 13 14 14 14 14 14 14 14 14 15 15 15 15 15 15 15 15 15 15 14 14 14 14 14 14 14 13 13 13 13 12 12 12 12 12
10 10 10 11 12 12 13 13 14 14 14 14 14 14 14 14 14 14 14 14 14 14 14 14 14 14 14 14 14 14 14 14 14 13 13 13 13 13 12 12 12 12 12 12
9 10 9 10 11 12 13 13 14 14 14 14 14 14 14 14 14 14 14 14 14 14 14 14 14 14 14 14 14 14 13 13 13 13 13 13 12 12 12 12 12 12 11 11
9 9 9 9 10 11 12 13 13 13 13 13 13 13 13 13 13 13 13 13 13 13 13 13 13 14 14 13 13 13 13 13 13 12 12 12 12 12 11 11 11 11 11 11
8 9 9 9 11 10 12 13 13 12 13 13 13 13 13 13 13 13 13 13 13 13 13 13 13 13 13 13 13 13 12 12 12 12 12 12 12 11 11 11 11 10 10 10
Wind_Speed
3 4 2 6 6 5 3 3 4 5 3 3 5 7 7 4 4 6 6 7 7 9 7 4 4 5 5 5 5 5 5 4 4 3 2 2 1 1 1 2 3 3 4 4
5 2 6 4 3 3 3 3 4 4 1 3 3 6 6 3 5 7 9 9 9 7 4 4 4 5 6 6 6 5 5 5 4 3 2 2 2 1 1 2 3 3 3 4
4 5 2 2 2 2 4 5 5 4 3 1 1 6 5 3 2 3 5 6 7 8 8 6 6 6 6 7 7 7 6 5 5 4 3 3 3 3 2 2 1 2 2 3
4 4 1 2 4 4 5 5 5 3 0 3 0 3 7 4 4 4 4 4 5 6 6 6 7 7 7 7 6 6 6 5 5 5 5 5 3 2 2 1 0 1 2 2
4 2 1 3 5 6 6 1 2 2 3 1 1 2 7 3 4 6 6 6 6 6 6 8 8 8 7 7 7 6 6 5 5 5 6 5 3 2 1 1 1 1 1 1
5 3 3 4 2 3 3 4 5 4 4 1 3 3 6 4 5 5 5 5 5 5 5 6 6 5 5 5 6 6 6 5 5 6 5 6 5 4 3 2 2 1 0 0
5 5 3 2 1 3 4 5 4 4 3 4 3 3 8 6 5 6 6 5 4 4 5 4 5 6 6 7 7 6 6 6 5 6 6 6 6 6 6 4 4 3 1 1
2 6 4 1 4 3 2 7 6 3 4 5 3 4 7 6 5 3 3 3 3 3 4 5 6 7 7 8 8 7 8 7 6 7 6 5 5 4 4 4 4 4 3 3
5 6 5 3 2 6 4 3 5 6 2 2 5 7 8 3 3 2 2 2 2 4 4 5 4 6 7 8 8 9 9 7 7 7 6 5 5 5 5 4 4 3 3 2
6 4 5 4 3 3 4 7 5 4 2 3 5 5 4 6 4 2 1 2 4 3 3 3 3 5 6 6 6 6 7 8 7 7 7 6 6 6 5 4 5 4 4 3
5 4 5 3 2 2 3 4 5 4 4 4 3 6 5 5 5 4 4 4 3 3 3 3 3 3 3 4 5 6 6 6 6 7 6 6 6 5 5 5 5 5 3 4
3 4 3 5 4 2 3 5 6 4 3 4 3 7 5 4 4 3 4 3 3 3 3 3 2 2 2 3 4 5 6 6 7 6 6 6 6 5 5 5 5 5 4 4
4 4 1 6 5 2 1 2 4 5 4 5 4 7 4 5 4 3 3 3 2 2 1 1 1 2 3 4 4 5 5 6 5 6 6 6 6 6 6 6 5 5 5 4
4 3 5 7 6 3 2 1 3 5 4 5 7 8 9 8 7 6 4 2 1 1 2 2 2 2 3 3 4 4 4 4 4 5 6 6 7 7 6 6 5 5 5 5
3 2 3 5 4 3 3 4 4 5 7 7 7 7 9 7 7 5 3 1 0 0 0 2 2 2 2 2 2 3 4 4 4 4 5 5 5 5 5 5 5 5 5 5
2 2 1 3 2 2 3 5 5 5 5 6 5 7 6 6 3 3 2 1 1 1 2 2 2 2 2 3 3 3 4 4 4 4 5 4 4 4 5 5 5 5 4 4
1 2 2 4 4 2 5 6 5 3 3 4 5 7 5 4 4 4 3 2 3 3 2 3 3 4 4 3 3 4 4 3 4 4 4 4 4 4 4 5 5 5 5 4
3 2 2 2 0 5 6 3 4 4 3 3 4 5 4 5 5 3 2 2 3 3 3 3 3 3 3 2 2 3 2 3 3 3 3 4 4 4 3 4 5 5 4 4
5 5 3 3 3 6 5 2 3 4 4 2 3 5 4 3 3 3 3 2 4 4 3 3 3 2 2 2 2 2 2 2 3 3 4 4 4 4 3 4 4 4 4 4
2 3 4 3 4 6 5 3 2 3 3 3 2 3 3 3 2 5 5 3 4 3 2 1 1 0 1 2 1 2 2 3 4 5 5 4 4 4 4 4 4 3 3 3
1 2 4 5 5 6 5 4 2 4 5 4 3 3 1 2 5 5 5 4 3 3 2 1 1 1 2 2 1 2 2 4 5 4 3 3 4 4 4 3 3 3 3 3
3 3 4 4 5 6 3 3 4 4 3 2 2 2 2 4 5 4 3 4 3 3 2 1 1 2 2 1 2 2 4 5 3 2 3 3 3 3 3 3 3 3 3 3
4 5 4 6 5 3 1 2 2 2 2 2 2 3 3 3 4 4 3 4 3 3 3 2 2 2 2 1 2 4 5 3 2 3 3 3 2 3 3 4 4 2 3 3
3 1 1 3 4 4 4 2 2 1 2 3 3 3 2 3 4 4 3 4 3 3 3 2 1 2 3 3 3 4 3 2 3 3 3 3 3 2 2 3 3 3 4 3
5 1 1 4 6 5 4 3 3 4 4 4 4 3 3 3 4 4 3 4 4 3 3 2 2 3 4 4 4 3 2 2 3 3 3 3 3 3 3 2 3 4 4 5
5 6 5 6 6 4 7 6 5 5 6 5 4 5 4 4 4 4 4 4 3 3 3 2 3 3 4 3 4 3 3 3 4 4 4 3 3 3 3 3 1 1 2 3
Wind_Direction
55 79 209 225 206 201 195 214 260 260 238 189 230 257 272 256 199 205 211 212 217 227 233 216 198 182 167 158 157 158 148 143 129 114 115 109 101 65 55 63 83 107 120 124
40 277 241 220 193 185 204 242 269 290 274 189 249 274 275 235 214 212 211 215 218 222 217 210 189 177 177 175 173 168 166 163 163 153 140 132 124 100 78 46 58 82 116 133
197 246 233 166 191 202 231 209 232 252 336 22 355 315 294 279 255 232 218 215 216 210 208 206 193 187 180 181 183 182 178 174 173 150 112 89 71 56 48 39 34 36 93 117
238 261 209 204 225 190 248 235 214 209 134 292 59 289 287 275 281 257 240 220 220 213 204 200 194 191 191 193 185 180 175 172 171 157 151 146 147 162 196 183 157 59 93 107
259 243 206 234 238 197 221 235 177 183 165 335 343 213 285 310 274 260 248 232 224 212 199 199 199 196 193 186 179 178 171 173 171 168 168 161 158 170 147 120 111 84 59 90
252 260 218 226 253 198 158 78 59 54 79 312 256 194 280 253 238 258 248 237 230 216 205 205 200 184 182 177 171 170 173 180 174 172 172 173 171 166 154 162 161 168 339 2
320 312 287 202 17 26 88 87 28 1 8 262 275 216 254 261 245 234 238 237 225 209 202 201 192 187 187 183 181 178 179 186 181 178 182 186 182 176 182 188 189 187 196 226
266 295 285 236 190 190 161 139 153 205 240 283 313 244 259 277 288 252 220 201 188 203 204 206 206 199 195 191 188 185 189 193 187 188 191 188 183 181 192 193 190 198 204 212
196 257 289 268 210 146 133 160 162 140 170 275 288 292 305 315 353 17 54 102 198 218 216 215 212 205 196 193 194 192 192 195 194 195 191 189 189 190 198 199 195 202 207 204
173 238 289 300 72 46 144 144 102 117 153 268 297 293 273 298 302 320 293 239 240 231 229 223 212 211 201 198 197 192 194 199 198 193 194 197 198 200 199 194 203 206 206 202
161 187 300 3 156 200 107 114 117 123 155 167 267 278 242 258 271 261 259 254 240 226 223 220 218 215 195 182 186 194 199 200 198 197 197 197 201 200 195 200 207 203 199 195
156 142 254 272 268 220 168 164 147 156 207 181 192 265 286 280 283 271 271 275 258 234 227 213 198 169 168 184 193 199 202 204 206 198 196 201 200 194 199 209 210 199 198 201
141 122 31 335 341 10 98 145 148 132 129 164 188 260 316 342 328 304 280 279 272 267 239 201 176 182 196 204 202 202 205 208 205 195 195 201 202 200 205 209 206 198 197 203
117 129 174 210 229 225 240 184 151 139 165 209 222 256 304 318 311 309 301 285 270 251 200 184 192 208 216 214 206 203 211 206 197 189 194 204 209 207 206 204 202 202 199 202
106 167 215 235 239 219 229 240 200 192 197 204 237 245 272 284 285 289 295 309 21 26 160 190 190 206 225 236 228 212 213 203 187 182 197 211 210 202 199 202 206 204 202 208
60 163 212 275 264 232 253 259 227 218 213 222 249 264 269 289 295 312 313 300 260 247 234 237 224 211 226 230 228 222 219 205 185 190 201 202 190 192 198 202 201 198 204 206
23 143 153 258 286 331 265 244 215 210 207 196 230 254 287 305 295 270 264 258 256 254 231 224 227 225 229 232 222 218 220 200 183 195 199 189 185 192 203 199 193 201 205 199
175 157 164 217 54 238 241 236 199 194 221 218 244 269 268 265 273 259 239 238 259 259 243 232 239 244 240 231 225 213 194 180 183 192 203 200 189 195 198 192 200 208 202 197
190 168 158 161 220 265 284 267 183 198 255 272 259 290 307 319 348 333 315 277 255 247 241 236 233 233 223 225 219 179 187 190 192 201 207 206 194 191 190 196 206 205 192 197
131 150 156 161 199 237 250 276 255 155 253 304 278 288 310 37 9 288 308 307 287 287 273 261 271 245 227 251 188 162 200 203 220 224 216 203 190 188 195 202 206 199 184 191
98 133 178 189 220 253 263 285 102 163 250 280 255 266 248 203 228 265 296 300 295 296 287 260 203 225 246 237 163 190 214 230 233 224 204 192 191 193 195 189 186 175 170 169
187 178 193 178 210 248 295 105 154 221 257 272 265 255 242 257 277 296 305 306 314 320 311 274 216 261 270 211 174 217 239 245 228 197 192 197 196 195 188 175 181 173 163 164
207 198 199 199 216 254 269 188 224 210 241 263 267 273 254 273 288 299 302 296 298 296 299 292 248 266 288 249 203 223 251 240 198 186 196 205 200 193 178 174 177 172 168 173
275 200 176 268 266 277 273 277 321 299 267 274 265 268 264 261 276 288 298 298 296 298 293 297 287 271 276 272 252 240 250 210 191 198 204 197 187 191 187 179 180 181 188 191
251 235 242 265 281 309 298 294 295 296 301 308 302 272 255 255 277 275 281 285 287 295 296 282 254 258 269 274 271 260 237 201 202 208 209 201 193 188 193 198 202 202 210 205
221 205 207 240 242 235 266 279 291 292 294 292 295 297 287 251 255 267 275 278 282 286 287 288 284 279 279 276 274 264 231 204 201 212 212 206 201 196 190 189 216 270 223 219
Height
1512 1518 1522 1520 1519 1520 1522 1525 1527 1523 1516 1519 1520 1519 1514 1512 1513 1513 1514 1515 1516 1518 1520 1522 1524 1526 1527 1529 1530 1531 1532 1533 1533 1533 1534 1534 1534 1535 1535 1536 1536 1536 1536 1537
1518 1520 1515 1514 1515 1518 1521 1525 1525 1520 1515 1518 1520 1518 1513 1511 1511 1510 1511 1512 1514 1516 1518 1520 1522 1524 1525 1527 1528 1530 1531 1532 1533 1533 1534 1534 1535 1535 1535 1535 1536 1536 1536 1537
1518 1515 1511 1513 1516 1519 1520 1523 1522 1522 1518 1517 1520 1521 1514 1509 1509 1509 1509 1510 1511 1513 1515 1517 1519 1521 1523 1525 1527 1528 1530 1531 1532 1533 1534 1534 1534 1535 1535 1535 1535 1536 1536 1536
1515 1511 1511 1513 1515 1516 1522 1514 1515 1518 1525 1530 1525 1536 1519 1512 1509 1507 1507 1508 1509 1511 1513 1515 1517 1519 1521 1523 1525 1527 1528 1530 1531 1532 1533 1533 1533 1534 1534 1534 1535 1535 1536 1536
1514 1510 1511 1513 1511 1511 1513 1510 1513 1517 1523 1530 1528 1534 1525 1513 1511 1507 1505 1505 1507 1509 1511 1513 1515 1517 1519 1521 1523 1525 1527 1528 1530 1531 1532 1532 1533 1533 1534 1534 1534 1535 1535 1535
1511 1508 1508 1508 1506 1507 1508 1513 1518 1524 1529 1538 1529 1534 1529 1516 1509 1504 1502 1503 1504 1506 1509 1511 1513 1515 1517 1520 1522 1523 1525 1527 1528 1529 1530 1531 1532 1532 1532 1533 1533 1534 1534 1534
1515 1509 1506 1505 1508 1508 1511 1523 1538 1540 1546 1542 1528 1530 1525 1506 1502 1501 1500 1500 1502 1504 1506 1508 1511 1513 1515 1517 1519 1521 1523 1524 1526 1527 1528 1529 1530 1531 1531 1531 1532 1532 1533 1533
1524 1522 1508 1504 1507 1511 1513 1520 1538 1546 1549 1542 1529 1530 1515 1501 1499 1498 1498 1499 1501 1502 1504 1506 1508 1510 1512 1515 1517 1519 1521 1522 1524 1525 1526 1527 1528 1529 1530 1530 1531 1531 1531 1531
1524 1521 1506 1503 1503 1506 1515 1520 1520 1534 1537 1542 1535 1525 1510 1499 1498 1497 1497 1498 1499 1501 1503 1504 1506 1508 1510 1512 1514 1516 1518 1520 1521 1522 1524 1525 1526 1527 1528 1528 1529 1529 1529 1530
1514 1519 1509 1504 1503 1505 1508 1515 1526 1534 1543 1546 1537 1529 1522 1505 1501 1499 1498 1498 1499 1500 1501 1503 1504 1506 1508 1510 1512 1514 1516 1517 1519 1520 1521 1523 1524 1525 1526 1526 1527 1527 1527 1528
1509 1518 1514 1508 1509 1511 1513 1517 1523 1533 1535 1544 1545 1533 1507 1504 1501 1499 1498 1498 1498 1499 1500 1501 1502 1504 1506 1508 1510 1512 1513 1515 1516 1517 1519 1520 1521 1522 1523 1524 1524 1525 1525 1525
1509 1517 1521 1513 1506 1505 1507 1512 1520 1530 1533 1537 1540 1531 1501 1501 1499 1498 1497 1496 1496 1497 1498 1500 1501 1502 1504 1506 1507 1509 1510 1512 1513 1515 1516 1517 1518 1520 1520 1521 1522 1522 1523 1523
1508 1517 1525 1522 1518 1510 1509 1510 1514 1521 1530 1538 1539 1526 1500 1499 1497 1496 1496 1495 1495 1495 1496 1498 1499 1500 1502 1503 1505 1506 1508 1509 1510 1512 1513 1514 1515 1516 1517 1518 1519 1519 1520 1520
1505 1514 1521 1524 1520 1513 1511 1511 1513 1519 1529 1532 1528 1517 1504 1500 1498 1495 1494 1494 1494 1494 1495 1496 1497 1498 1500 1501 1503 1504 1505 1506 1508 1509 1510 1511 1512 1513 1514 1515 1516 1516 1517 1517
1506 1513 1512 1511 1509 1509 1508 1509 1511 1514 1517 1522 1517 1513 1505 1500 1498 1495 1493 1493 1492 1493 1493 1494 1495 1497 1498 1499 1500 1501 1503 1504 1505 1506 1507 1508 1509 1510 1511 1511 1512 1513 1514 1514
1507 1511 1511 1511 1508 1508 1510 1507 1507 1509 1510 1512 1511 1508 1499 1497 1496 1494 1493 1492 1491 1491 1492 1493 1494 1495 1496 1497 1498 1499 1500 1501 1502 1503 1504 1505 1506 1506 1507 1508 1508 1509 1510 1511
1511 1512 1516 1517 1511 1509 1513 1505 1504 1505 1505 1506 1508 1503 1497 1496 1494 1492 1492 1491 1491 1490 1491 1492 1492 1493 1494 1495 1495 1496 1497 1498 1499 1500 1501 1502 1502 1503 1504 1504 1505 1505 1506 1507
1510 1513 1517 1519 1515 1519 1507 1497 1498 1500 1500 1501 1499 1497 1495 1494 1491 1490 1490 1490 1489 1489 1489 1490 1490 1491 1492 1493 1493 1494 1495 1495 1496 1497 1498 1498 1499 1499 1500 1500 1501 1502 1502 1503
1505 1510 1517 1520 1519 1513 1503 1497 1497 1499 1499 1497 1496 1494 1493 1491 1490 1489 1489 1489 1488 1488 1488 1488 1489 1489 1490 1490 1490 1491 1492 1492 1493 1493 1494 1495 1496 1496 1496 1497 1497 1498 1498 1499
1504 1506 1514 1518 1516 1515 1503 1494 1493 1496 1501 1496 1494 1493 1492 1491 1495 1491 1488 1487 1487 1486 1486 1486 1487 1487 1487 1488 1488 1488 1488 1489 1489 1490 1491 1491 1492 1492 1493 1493 1493 1494 1494 1495
1508 1510 1512 1515 1513 1506 1496 1492 1493 1503 1501 1494 1492 1492 1491 1491 1491 1489 1487 1486 1485 1485 1484 1485 1485 1485 1485 1485 1485 1485 1485 1485 1486 1487 1487 1488 1488 1489 1489 1490 1490 1490 1491 1491
1508 1510 1511 1512 1512 1507 1493 1492 1496 1497 1493 1492 1490 1490 1489 1488 1487 1486 1485 1484 1483 1483 1483 1482 1482 1482 1483 1483 1483 1482 1482 1482 1483 1483 1484 1484 1485 1485 1486 1486 1486 1487 1487 1487
1505 1504 1504 1504 1502 1495 1492 1492 1492 1492 1491 1490 1489 1488 1487 1486 1485 1484 1483 1482 1481 1481 1481 1481 1480 1480 1480 1480 1480 1479 1479 1479 1479 1480 1480 1480 1481 1481 1482 1482 1483 1483 1483 1483
1501 1499 1500 1499 1494 1492 1491 1490 1490 1490 1489 1489 1488 1487 1486 1484 1483 1482 1481 1480 1479 1479 1478 1478 1478 1477 1477 1477 1476 1476 1476 1476 1476 1476 1476 1476 1476 1477 1477 1478 1479 1479 1480 1480
1499 1498 1498 1497 1493 1490 1489 1488 1488 1488 1487 1486 1485 1484 1484 1483 1481 1480 1479 1478 1477 1476 1476 1475 1475 1474 1473 1473 1473 1473 1473 1472 1472 1472 1472 1472 1472 1473 1473 1474 1474 1475 1476 1476
1494 1495 1496 1494 1490 1490 1488 1487 1486 1486 1484 1483 1483 1481 1480 1480 1479 1478 1476 1475 1474 1473 1473 1472 1471 1471 1470 1469 1469 1469 1468 1468 1468 1467 1467 1467 1468 1468 1469 1469 1470 1470 1472 1472